Weather in Belmopan

Belize     17˚15′01″N   88˚46′19″W
temp.,
°C
wind,
m/s
gust,
m/s
humid.,
%
clouds,
%
prec.,
mm/h
press.,
hPa
HPBL,
m
17 january, sun
sun1700:00+18˚w019780 0.1 101823
03:00+17˚wsw019587 0.0 101623
06:00+15˚nnw019474 0.0 101723
09:00+21˚nne11704 0.0 1018396
12:00+25˚ne235844 0.0 1018995
15:00+23˚ene2367100 0.0 1014790
18:00+20˚ese128582 0.0 101654
21:00+19˚sse1191100 0.0 101839
18 january, mon
mon1800:00+18˚s119378 0.0 101824
03:00+17˚ssw019751 0.0 101623
06:00+17˚nne009938 0.0 101723
09:00+21˚n147752 0.0 1019462
12:00+23˚e147474 0.1 1019780
15:00+21˚ene1696100 0.6 1016392
18:00+20˚ne1498100 1.6 1017152
21:00+19˚ene149971 0.3 1018166
19 january, tue
tue1900:00+19˚w019960 0.3 101827
03:00+19˚nw1210097 1.6 1016140
06:00+19˚ne0210098 4.8 1017112
09:00+22˚n0199100 0.9 1019161
12:00+24˚e389797 5.1 1018919
15:00+24˚e389798 5.8 1016954
18:00+22˚e189999 6.9 1017388
21:00+21˚e1199100 0.5 101847
20 january, wed
wed2000:00+21˚ene119997 1.2 101839
03:00+21˚ene139982 1.1 101778
06:00+20˚e129953 1.5 101775
09:00+24˚ene279425 0.6 1019896
12:00+28˚ene376815 1.8 10181371
15:00+27˚ene376856 0.5 10161208
18:00+22˚ene299232 0.8 1017435
21:00+21˚ene12999 0.6 101995
21 january, thu
thu2100:00+21˚n0210035 2.4 1017148
03:00+20˚nnw1210083 0.9 1016147
06:00+21˚nnw1310090 1.6 1017200
09:00+21˚n1210099 1.1 1019181
12:00+24˚ne029198 2.0 1017336
15:00+24˚ene269754 4.3 1014667
18:00+22˚ene119934 5.4 101424
21:00+21˚sse119921 0.0 101623